This demonstration page uses our WeatherBlox Daily Observations layout. Learn more.

Left ArrowRight Arrow

31.84235, -102.49876

Hourly Observations for March 1, 2023

Temp ( °F °C ) Dew Point ( °F °C ) Humidity (%) Winds ( mph kmh ) Pressure ( in mb ) Visibility ( mi km ) Precip ( " mm )
3:53 am 03:53 Clear 60 15.6 11 -11.7 14 14 WNW 5 7 29.67 1005 10 16 0.00 0.00
4:53 am 04:53 Clear 60 15.6 10 -12.2 14 14 NW 9 15 29.67 1005 10 16 0.00 0.00
5:53 am 05:53 Clear 55 12.8 12 -11.1 18 18 NNW 9 15 29.69 1005 10 16 0.00 0.00
6:53 am 06:53 Clear 54 12.2 12 -11.1 18 18 NNW 7 11 29.73 1007 10 16 0.00 0.00
7:53 am 07:53 Sunny 54 12.2 13 -10.6 19 19 NNW 6 9 29.74 1007 10 16 0.00 0.00
8:53 am 08:53 Sunny 56 13.3 18 -7.8 22 22 Calm 29.76 1008 10 16 0.00 0.00
9:53 am 09:53 Mostly Sunny 58 14.4 14 -10 17 17 NNE 7 11 29.77 1008 10 16 0.00 0.00
10:53 am 10:53 Sunny 60 15.6 14 -10 16 16 NE 6 9 29.80 1009 10 16 0.00 0.00
11:53 am 11:53 Sunny 62 16.7 14 -10 15 15 SE 8 13 29.78 1009 10 16 0.00 0.00
12:53 pm 12:53 Sunny 66 18.9 15 -9.4 14 14 SSE 10 17 29.74 1007 10 16 0.00 0.00
1:53 pm 13:53 Sunny 70 21.1 12 -11.1 10 10 SSE 7 11 29.69 1006 10 16 0.00 0.00
2:53 pm 14:53 Sunny 73 22.8 12 -11.1 9 9 SW 15 24 29.68 1005 10 16 0.00 0.00
3:53 pm 15:53 Sunny 74 23.3 13 -10.6 10 10 SSW 14 22 29.65 1004 10 16 0.00 0.00
4:53 pm 16:53 Sunny 73 22.8 17 -8.3 12 12 SW 12 19 29.65 1004 10 16 0.00 0.00
5:53 pm 17:53 Sunny 71 21.7 18 -7.8 13 13 SSW 8 13 29.66 1004 10 16 0.00 0.00
6:53 pm 18:53 Clear 71 21.7 24 -4.4 17 17 WSW 17 28 29.66 1004 10 16 0.00 0.00
7:53 pm 19:53 Clear 67 19.4 25 -3.9 20 20 SW 8 13 29.67 1005 10 16 0.00 0.00
8:53 pm 20:53 Clear 67 19.4 26 -3.3 21 21 SSW 9 15 29.64 1004 10 16 0.00 0.00
9:53 pm 21:53 Clear 62 16.7 26 -3.3 25 25 SSW 8 13 29.65 1004 10 16 0.00 0.00
10:53 pm 22:53 Clear 60 15.6 26 -3.3 27 27 S 6 9 29.62 1003 10 16 0.00 0.00
11:53 pm 23:53 Clear 61 16.1 25 -3.9 25 25 S 8 13 29.61 1003 10 16 0.00 0.00

Powered by Vaisala Xweather